This demonstration page uses our WeatherBlox Daily Observations layout. Learn more.

Left ArrowRight Arrow

38.88101, -77.10428

Hourly Observations for January 5, 2022

Temp ( °F °C ) Dew Point ( °F °C ) Humidity (%) Winds ( mph kmh ) Pressure ( in mb ) Visibility ( mi km ) Precip ( " mm )
12:52 am 00:52 Partly Cloudy 30 -1.1 26 -3.3 85 85 SSE 10 17 30.24 1024 10 16 0.00 0.00
1:52 am 01:52 Mostly Clear 30 -1.1 25 -3.9 82 82 S 6 9 30.22 1023 10 16 0.00 0.00
2:52 am 02:52 Mostly Cloudy 29 -1.7 24 -4.4 82 82 SSW 7 11 30.21 1023 10 16 0.00 0.00
3:52 am 03:52 Mostly Cloudy 30 -1.1 25 -3.9 82 82 S 5 7 30.15 1021 10 16 0.00 0.00
4:52 am 04:52 Cloudy 32 0 26 -3.3 79 79 S 10 17 30.12 1020 10 16 0.00 0.00
5:52 am 05:52 Cloudy 32 0 26 -3.3 79 79 S 10 17 30.10 1019 10 16 0.00 0.00
6:34 am 06:34 Cloudy 33 0.6 27 -2.8 78 78 S 13 20 30.08 1019 10 16 0.00 0.00
6:52 am 06:52 Cloudy 33 0.6 28 -2.2 82 82 S 10 17 30.06 1018 10 16 0.00 0.00
7:52 am 07:52 Cloudy 34 1.1 27 -2.8 76 76 S 13 20 30.04 1017 10 16 0.00 0.00
8:36 am 08:36 Cloudy 34 1.1 27 -2.8 76 76 S 12 19 30.03 1017 10 16 0.00 0.00
8:52 am 08:52 Cloudy 35 1.7 27 -2.8 72 72 SSW 13 20 30.02 1017 10 16 0.00 0.00
9:52 am 09:52 Cloudy 36 2.2 28 -2.2 73 73 SSW 12 19 29.99 1016 10 16 0.00 0.00
10:52 am 10:52 Cloudy 37 2.8 28 -2.2 70 70 S 14 22 29.96 1014 10 16 0.00 0.00
11:52 am 11:52 Cloudy 38 3.3 28 -2.2 68 68 S 14 22 29.90 1013 10 16 0.00 0.00
12:52 pm 12:52 Cloudy 40 4.4 30 -1.1 68 68 SSW 10 17 29.86 1011 10 16 0.00 0.00
1:52 pm 13:52 Cloudy 40 4.4 32 0 73 73 SSW 6 9 29.83 1010 10 16 0.00 0.00
2:52 pm 14:52 Cloudy 40 4.4 31 -0.6 70 70 SSW 8 13 29.82 1010 10 16 0.00 0.00
3:52 pm 15:52 Mostly Cloudy 40 4.4 32 0 73 73 S 9 15 29.80 1009 10 16 0.00 0.00
4:52 pm 16:52 Mostly Cloudy 41 5 33 0.6 73 73 SSW 9 15 29.79 1009 10 16 0.00 0.00
5:52 pm 17:52 Mostly Cloudy 41 5 33 0.6 73 73 SSW 8 13 29.78 1008 10 16 0.00 0.00
6:52 pm 18:52 Mostly Cloudy 40 4.4 33 0.6 77 77 SSW 8 13 29.78 1008 10 16 0.00 0.00
7:52 pm 19:52 Mostly Cloudy 40 4.4 33 0.6 77 77 SSW 5 7 29.78 1008 10 16 0.00 0.00
8:52 pm 20:52 Cloudy 40 4.4 33 0.6 77 77 SW 3 6 29.78 1008 10 16 0.00 0.00
9:52 pm 21:52 Cloudy 39 3.9 33 0.6 79 79 S 8 13 29.76 1008 10 16 0.00 0.00
10:52 pm 22:52 Cloudy 40 4.4 33 0.6 77 77 S 7 11 29.77 1008 10 16 0.00 0.00
11:52 pm 23:52 Cloudy 40 4.4 33 0.6 77 77 SSW 8 13 29.77 1008 10 16 0.00 0.00

Powered by AerisWeather